CAPE
0 0 0 0 0 0 0 0 0 0 0 0 0 0 0 0 0 0 0 0 0 0 0 0 0 0 0 0 0 0 0 0 0 0 0 199 330 646 941 969 1284 1447 1489 1132 1223 1693 2347 2827 2549 2437 2231 2040 2399 2526 2547 2531 2341 2293 2069 2116 1767 1601 2088 1700 1149 964 1034 1148 963 1314 1488 1430 1411 1097 1097 1186 1222 1014 1039 1101 1386 1558 1577 1622 1777 1833
0 0 0 0 0 0 0 0 0 0 0 0 0 0 0 0 0 0 0 0 0 0 0 0 0 0 0 0 0 0 0 0 0 0 0 4 58 371 653 858 1132 1554 1098 1262 1530 1362 1910 2512 2690 2636 2563 2352 2179 2320 2283 2407 2283 2296 2290 2148 1797 1484 1649 1292 1427 1687 1226 832 870 997 898 1006 1205 1465 1504 1311 1288 1976 1202 1018 1360 1611 1649 1717 1857 1670
0 0 0 0 0 0 0 0 0 0 0 0 0 0 0 0 0 0 0 0 0 0 0 0 0 0 0 0 0 0 0 0 0 0 0 0 1 4 266 619 1016 1564 1013 544 777 1504 2544 2619 2677 2414 2381 2542 2343 2376 2428 2288 2258 2301 2355 2186 1742 1463 1240 1243 1080 1075 983 842 787 1180 1319 1170 1213 1292 1134 1278 1523 996 642 1016 1194 1855 1699 1768 1688 1765
0 0 0 0 0 0 0 0 0 0 0 0 0 0 0 0 0 0 2 0 0 0 0 0 0 0 0 0 0 0 0 0 0 0 0 0 0 0 1 57 964 1045 805 703 1126 1569 2519 2797 2542 2562 2596 2593 2513 2393 2472 2366 2340 2179 2127 1810 1484 1592 1382 1385 1072 1096 842 980 1004 1014 764 573 1251 1370 1615 1353 1306 992 968 979 1782 1051 1766 1438 1494 1548
0 0 0 0 0 0 0 0 0 0 0 0 0 0 0 0 0 0 4 0 0 0 0 0 0 0 0 0 0 0 0 0 0 0 0 0 0 0 0 0 1094 741 755 942 1225 1858 2353 2707 2657 2575 2679 2603 2728 2583 2283 2415 2469 2128 1872 1540 1405 1327 1500 1303 1066 823 1173 878 834 668 674 533 611 1106 1004 866 854 811 776 723 861 1183 1305 1530 1210 1241
0 0 0 0 0 0 0 0 0 0 0 0 0 0 0 0 0 0 0 0 0 0 0 0 0 0 0 0 0 0 0 0 0 0 0 0 0 0 0 0 0 845 660 1126 1048 1384 1256 2089 2309 2802 2632 2739 2896 2864 2467 2158 2271 2083 1787 1525 1284 1481 1414 1247 1001 1114 982 789 618 543 549 507 680 664 893 608 613 690 477 436 1070 922 1511 1574 1200 1260
0 0 0 0 0 0 0 0 0 0 0 0 0 0 0 0 0 0 0 0 0 0 3 0 4 6 0 0 0 0 0 0 0 0 0 0 0 0 0 0 0 94 913 1134 1441 1338 847 1460 2072 2673 2722 2759 2801 2841 2816 2456 2230 1950 1597 1162 1336 1360 1120 1154 1116 1016 869 864 745 565 758 809 802 966 760 1063 1057 660 818 416 690 1220 1741 1529 1723 1679
0 0 0 0 0 0 0 0 0 0 0 0 0 0 0 0 0 0 0 0 0 0 0 0 5 29 11 0 0 0 0 0 1 0 0 0 0 0 0 0 0 0 5 1301 1195 1418 1272 1638 2185 2879 2953 2754 2435 2475 2578 2512 1701 2009 1288 1385 1699 1326 1104 1076 1076 778 762 856 723 879 978 874 524 946 646 913 737 614 533 1335 1099 1637 1728 1916 1911 1349
0 0 0 0 0 0 0 0 0 0 0 0 0 0 0 0 0 0 0 0 0 0 0 0 15 14 1 0 0 0 0 6 3 1 51 64 234 378 356 207 20 0 0 771 1040 1023 978 1810 2618 3033 2980 2807 2454 2436 1769 1643 1414 1544 1250 1397 1367 1322 1045 801 786 702 697 740 931 1143 1022 834 1051 983 1171 706 544 638 824 699 1618 1503 1407 1045 1135 1064
0 0 0 0 0 0 0 0 0 0 0 0 0 0 0 0 0 0 0 0 0 0 0 3 45 48 69 2 0 0 4 51 62 306 797 924 962 945 816 539 329 114 0 856 1112 1330 1404 1503 2820 2882 2638 2724 2861 2302 1908 1653 1258 1076 990 1187 1273 1360 1011 673 787 762 710 767 903 1016 926 1122 844 719 834 830 696 777 707 815 1086 1335 1323 1405 1183 1247
4 0 0 0 0 0 0 0 0 0 0 0 0 0 0 0 0 0 0 0 0 0 0 2 14 0 20 93 54 2 148 422 672 400 740 1174 1169 928 666 775 160 33 33 976 1280 1179 1075 2003 2616 2678 2475 2203 2224 2124 1882 1683 1542 1153 1010 1169 1247 1292 1102 674 746 811 844 652 809 815 793 793 633 636 690 694 832 992 939 908 1084 1414 1384 1209 1447 1304
0 0 0 0 0 0 0 0 0 0 0 0 0 0 0 0 0 0 1 0 0 0 4 16 8 8 15 92 53 317 156 601 554 812 919 1322 1032 811 836 1052 480 382 358 1532 1981 1786 1970 2454 2542 2542 2138 2114 2084 2004 1778 1660 1433 1163 1004 928 769 819 583 652 676 875 719 793 779 888 894 714 604 745 802 923 787 797 749 718 691 972 1366 1307 1365 1442
0 0 0 0 0 0 0 0 0 0 0 0 0 0 0 0 0 0 4 0 0 0 16 1 28 33 9 64 107 70 414 954 1124 908 1102 1157 1132 1417 1238 1142 546 448 1762 1931 2029 2043 2173 2324 2326 2178 1969 1863 1872 1836 1755 1623 1514 1512 1330 1051 914 611 802 942 867 1005 983 874 853 1074 908 864 776 1015 948 926 437 408 461 489 532 853 844 906 994 708
0 0 0 0 0 0 0 0 0 0 0 0 0 0 0 0 0 4 59 23 11 3 0 81 119 49 105 453 525 966 1093 960 1242 1374 1381 1348 1840 1721 1410 1317 1187 1659 1907 2113 2198 2193 2070 2012 2215 1835 1838 1697 1552 1656 1579 1482 1391 1427 1458 1332 1087 769 726 850 900 972 973 903 975 1188 1167 1117 962 1232 1358 1124 490 258 400 285 800 889 655 884 758 710
0 0 0 0 0 0 0 0 0 0 0 0 0 0 0 0 0 0 2 9 18 17 20 82 89 101 53 65 397 1095 1176 994 1060 1221 1629 1821 1953 2046 1763 1534 1540 1594 1726 2176 2151 1971 1913 2121 1915 1562 1814 1634 1252 1330 1372 1426 1492 1491 1372 1231 1094 917 703 722 812 902 964 837 860 1154 1191 1416 1310 1215 1355 848 514 405 659 594 965 628 589 622 674 704
0 0 2 0 0 0 0 0 0 0 0 0 0 0 0 0 0 7 14 65 266 17 58 277 83 185 384 521 652 695 924 916 896 1224 1356 1672 1835 1592 1738 1471 1374 1329 1445 1486 1787 1641 1597 1790 1626 1510 1290 1175 1386 1230 1194 1227 1272 1243 1242 1349 1206 826 677 835 871 881 848 851 1024 1056 1225 1183 1053 1392 1126 1173 1101 885 1233 909 584 579 602 525 612 604
0 0 0 0 0 0 0 0 0 0 1 22 0 0 0 0 19 7 2 20 97 99 29 2 285 241 648 98 247 557 834 1034 908 928 1264 1620 1643 1824 1510 1506 1394 1842 1462 1679 1611 1526 1473 1644 1489 1333 1333 1257 1255 1500 1417 1384 1213 1055 1116 1086 1137 677 789 856 931 819 980 930 946 810 1021 1151 1171 1330 1525 1175 1196 1212 1142 965 704 608 502 600 546 562
0 0 0 0 0 0 0 0 0 0 0 14 25 38 0 0 29 84 122 108 54 24 10 19 44 149 173 120 565 715 740 1022 1241 1274 1319 1413 1471 1535 1622 1650 1548 1537 1339 1267 1280 1384 1448 1412 1335 1207 1250 1120 1130 1166 1460 1272 1143 944 967 954 769 771 632 895 739 947 966 726 739 805 894 912 954 777 871 883 983 1180 756 697 618 619 673 506 455 502
0 0 0 0 0 0 0 0 0 0 0 0 37 16 1 8 0 8 0 4 21 22 100 6 73 199 304 259 229 652 782 1472 1346 1203 1088 1185 1463 1492 1605 1435 1435 1324 1200 1145 1218 1402 1383 1224 1208 1175 1176 1171 1118 1159 1019 1227 1014 945 856 797 983 943 781 784 714 796 906 797 812 992 1220 786 746 649 988 1214 1381 1047 839 700 746 820 718 592 516 500
20 0 18 0 0 0 0 0 0 0 0 0 0 0 0 16 199 36 0 25 139 174 23 139 72 25 291 122 180 724 976 1350 1021 650 1157 1094 1303 1230 1003 1020 1351 1334 1207 1289 1170 1143 1262 1155 1156 1188 1092 1027 1122 1106 1158 1055 953 596 877 1030 898 1063 791 790 841 960 904 919 989 888 1085 1166 798 800 707 1012 1337 1118 912 684 770 880 698 542 293 397
52 25 3 50 0 0 3 0 0 0 0 0 0 0 2 9 72 30 278 101 115 69 50 49 114 186 563 740 953 996 1185 1123 1189 1123 1182 1232 1178 1038 1217 1139 1201 1103 1156 1288 1225 1252 1171 1162 1176 985 997 1032 1102 963 1034 941 920 992 961 793 794 1032 887 786 1000 990 883 1003 735 411 544 1061 664 765 1168 775 1203 893 859 813 751 790 705 355 360 331
0 38 0 18 26 6 3 0 0 0 0 0 0 0 3 21 107 33 54 18 1 3 5 19 97 257 947 480 579 1309 1241 1120 1192 1398 1145 1234 1061 1299 1098 978 972 1044 1130 1198 1151 918 1099 1024 1156 962 1050 1115 1295 1369 1138 1020 872 813 868 855 704 885 816 964 1109 869 800 882 706 584 730 1063 868 597 534 770 943 637 725 692 707 739 497 468 390 271
21 30 109 0 6 74 281 90 4 0 41 13 10 2 0 2 5 51 174 74 47 8 22 157 48 140 1091 766 1004 1212 1186 1035 1213 1228 1291 1286 1229 1053 955 938 906 861 831 818 939 914 999 992 853 1148 1056 871 926 824 682 609 746 946 649 674 715 731 731 750 943 706 892 1053 942 870 1344 1323 1273 1128 766 728 656 632 651 746 944 553 658 572 346 328
65 50 202 173 70 67 0 128 86 41 23 59 45 74 78 84 5 47 95 336 173 134 0 6 67 374 688 585 1055 1276 1259 1284 1120 1323 1319 1321 1218 835 668 671 730 749 694 596 636 611 834 817 688 783 636 500 704 558 1031 485 606 232 492 404 528 644 712 741 851 879 1033 975 1235 1331 1563 1489 1127 1244 783 753 550 558 486 705 748 900 884 669 404 361
52 40 59 60 106 118 169 221 139 97 1 20 175 171 66 83 271 196 60 286 40 91 28 16 26 741 1046 591 936 1153 817 1030 984 933 1101 1014 830 670 693 562 633 631 591 516 508 461 432 621 544 618 482 400 433 418 456 469 508 559 582 569 711 862 662 1356 1137 1149 1000 893 1502 1581 1331 1437 1354 1123 1050 577 639 698 593 947 962 890 861 660 534 485
66 425 95 21 49 21 40 24 11 45 161 191 121 350 269 167 409 286 259 83 15 39 26 41 20 519 1167 1030 944 1025 902 998 912 809 922 1058 858 690 652 674 663 589 541 454 392 311 151 80 334 204 172 401 481 528 581 432 540 430 559 635 1048 1329 734 676 933 538 591 410 586 880 1012 957 1188 1346 731 760 945 638 685 939 926 972 834 339 373 191
50 97 181 262 87 27 32 25 25 2 41 72 325 623 133 58 386 659 450 208 62 24 60 221 98 378 868 1124 896 847 746 863 936 887 934 920 775 636 555 636 588 541 464 375 259 178 147 95 68 44 56 146 354 502 489 482 521 488 445 506 719 1025 815 586 445 402 298 259 346 498 598 686 552 1069 1182 1320 1146 925 832 889 868 821 531 263 110 8
295 305 420 298 528 378 189 74 5 16 46 111 59 82 233 566 876 459 201 226 587 112 308 935 704 371 369 624 701 737 542 610 837 849 856 838 650 563 583 656 548 409 362 306 306 83 104 122 91 61 45 23 237 291 44 391 497 522 553 454 523 629 476 544 380 397 260 425 368 299 528 609 588 716 981 1345 1052 894 747 706 705 457 219 85 6 0
59 14 124 214 425 102 24 13 25 21 4 157 202 286 445 746 1025 629 1116 617 493 121 49 82 667 488 609 678 698 632 578 442 484 526 630 632 486 435 485 600 546 456 304 297 198 0 66 59 211 1 11 6 189 123 33 92 302 432 443 408 330 415 452 372 450 417 440 246 322 477 776 616 502 642 788 660 811 741 570 511 336 251 64 86 75 40
32 104 162 272 80 227 204 133 97 64 120 74 107 45 93 606 666 459 358 340 881 1072 602 1078 687 304 363 504 562 555 538 528 557 563 552 538 445 393 327 522 526 378 353 355 268 225 120 1 1 2 80 97 103 30 1 20 46 307 247 251 248 289 530 425 66 644 450 338 393 439 384 373 603 374 428 457 516 424 472 311 152 37 15 9 3 0
42 38 151 254 51 55 365 75 166 10 29 80 15 29 82 191 157 152 33 282 575 372 173 484 494 393 290 334 464 499 478 510 619 646 415 339 334 294 298 473 461 419 389 365 275 32 1 1 1 1 25 11 21 2 3 12 53 9 66 117 245 318 351 493 631 359 652 714 631 494 385 391 433 391 258 428 526 513 414 288 132 24 4 95 250 228
18 7 143 364 139 138 117 176 152 73 54 48 27 2 1 0 34 8 20 6 147 244 298 658 266 181 275 294 354 432 362 378 402 383 274 402 164 226 316 408 458 222 247 125 92 1 3 1 1 26 60 57 43 9 2 7 22 56 18 26 0 68 9 222 297 340 343 280 278 236 199 275 275 183 238 340 401 304 299 331 286 230 156 125 87 68
231 182 28 72 106 16 79 75 40 124 95 38 9 0 0 0 0 0 7 9 4 73 256 168 259 239 60 123 211 360 340 346 173 122 253 301 216 300 303 306 278 222 200 135 8 0 22 32 4 21 9 1 4 4 15 5 44 44 61 49 7 4 0 0 91 45 59 73 146 94 114 50 49 8 0 0 0 0 7 81 0 0 21 51 56 52
251 325 56 512 110 57 118 88 67 51 118 12 2 0 3 0 3 5 6 9 7 4 16 36 193 189 120 45 39 112 166 99 17 91 351 294 282 323 295 180 183 167 114 70 39 1 1 2 21 22 10 2 4 25 31 6 54 25 62 22 118 81 20 0 0 2 32 13 4 60 98 94 1 0 0 0 109 0 0 0 0 2 0 0 4 23
257 300 89 8 36 3 26 52 92 60 22 0 9 1 2 6 1 0 6 2 3 3 4 1 3 36 26 15 39 65 168 214 98 43 177 308 306 360 238 135 62 75 36 7 3 1 1 1 2 2 8 4 1 7 11 7 1 16 18 3 14 0 16 0 0 0 0 0 8 10 2 9 2 0 0 0 0 0 0 0 0 0 3 0 1 0
127 94 122 13 43 17 0 25 109 18 1 4 3 0 0 8 0 0 6 2 1 2 3 2 2 1 2 10 16 38 149 262 213 118 191 223 294 236 157 88 22 2 34 2 1 2 14 35 16 22 13 22 4 16 8 3 1 4 2 7 2 1 2 2 0 0 0 1 2 5 8 0 1 0 9 16 3 0 0 0 0 2 1 0 0 0
231 133 28 46 40 56 20 34 2 2 0 0 1 0 0 1 0 0 0 2 5 6 4 3 2 2 2 5 15 13 99 312 198 137 186 251 246 208 134 33 3 2 4 2 1 4 25 47 37 2 2 5 4 3 1 0 0 0 16 11 12 7 6 2 0 0 1 0 0 0 0 2 10 12 24 6 0 0 0 0 0 0 2 0 0 0
60 135 37 10 52 7 8 27 3 12 19 1 1 1 4 4 4 4 0 0 4 4 6 7 3 3 3 10 19 18 15 58 51 90 38 133 200 203 149 53 4 3 3 2 2 2 21 37 35 8 0 0 1 1 1 2 3 0 11 10 16 10 10 10 2 2 5 2 1 7 16 9 8 3 8 1 1 0 0 0 0 2 0 0 0 2
41 33 101 13 32 3 77 15 26 49 4 0 0 0 1 3 2 0 2 2 1 6 4 6 6 2 2 5 6 7 4 2 2 0 0 16 54 46 25 6 0 0 0 0 1 14 18 38 24 5 0 3 3 1 3 4 7 13 6 14 23 28 28 14 7 3 1 5 8 11 8 6 3 1 3 0 0 1 1 0 0 0 1 0 0 1
2 8 56 24 5 7 36 54 17 7 5 1 2 0 1 2 3 0 12 3 1 3 6 2 3 1 2 4 1 6 2 0 0 2 5 3 2 1 1 0 0 1 0 0 0 5 4 4 10 2 0 0 0 0 0 0 0 5 1 8 5 8 5 6 2 3 4 6 2 6 7 0 2 1 1 1 2 1 0 0 3 5 0 0 0 0
2 20 24 40 25 41 28 2 2 3 0 0 1 1 1 4 3 1 3 3 1 4 2 2 1 2 4 6 5 2 0 1 2 3 1 6 6 19 13 1 4 7 4 2 3 3 5 17 5 6 8 12 3 0 0 0 0 0 0 1 2 1 0 0 0 3 3 3 0 8 5 0 1 1 0 0 0 0 0 1 2 2 0 1 1 0
0 9 13 24 17 22 30 17 3 7 1 1 0 1 1 1 0 6 1 17 3 9 6 0 3 6 0 1 3 1 3 4 4 8 9 7 8 4 3 1 0 0 2 3 4 4 4 6 6 3 2 11 12 5 2 0 0 0 1 1 3 8 7 1 1 1 1 0 1 0 0 1 0 0 1 1 0 0 2 1 0 1 3 0 0 0
2 5 8 3 3 7 3 23 4 4 0 3 5 4 2 1 1 6 5 5 10 4 7 4 4 5 2 8 6 4 3 1 3 6 5 5 6 4 4 3 2 1 1 1 5 3 5 8 8 4 0 0 0 0 0 0 0 0 1 6 6 7 2 0 0 0 0 0 0 0 0 0 1 0 0 0 0 0 0 0 1 1 0 0 0 2
0 4 2 1 4 2 2 4 6 2 0 0 0 2 1 3 0 0 5 3 4 4 6 8 5 2 3 0 3 4 4 4 2 2 3 3 6 5 4 1 1 2 1 0 0 2 2 6 6 3 0 0 0 0 0 0 0 1 1 2 0 0 0 0 0 0 0 0 1 0 0 0 0 0 0 0 0 0 0 0 0 0 0 0 0 0
0 0 0 2 2 3 7 2 0 0 0 0 3 8 1 9 16 7 4 3 4 3 3 3 2 2 2 6 3 2 4 2 4 1 4 9 7 2 1 0 1 3 3 1 2 1 1 4 2 0 0 0 0 1 4 2 0 0 1 1 0 0 0 0 0 0 0 0 0 0 0 0 0 0 0 0 0 0 0 0 0 0 0 0 0 0
2 0 0 0 0 0 1 1 0 1 1 1 0 7 5 5 6 4 2 4 3 3 4 3 2 2 1 2 2 2 4 2 4 1 9 8 7 2 1 1 1 2 1 1 0 0 0 0 0 0 0 0 0 0 1 2 2 1 0 1 0 0 1 0 0 0 0 0 0 0 0 0 0 0 0 0 0 0 0 0 0 0 0 0 0 0
4 6 1 0 7 0 10 4 1 0 1 0 0 0 4 8 5 2 3 3 4 5 3 3 5 4 1 0 0 0 0 0 0 3 3 8 2 1 1 2 3 1 0 2 0 0 0 0 0 0 0 0 0 0 0 0 0 0 0 0 0 0 0 0 0 1 2 0 0 0 0 0 0 0 0 0 0 0 2 1 0 0 0 0 0 0
0 0 0 3 3 1 2 2 2 3 0 1 0 0 0 0 0 5 6 4 3 1 1 2 3 5 4 10 6 3 0 0 0 0 0 2 0 3 6 4 2 0 0 0 0 0 0 0 0 0 0 0 0 0 0 0 0 0 0 0 0 0 0 0 0 0 1 0 0 0 0 0 0 0 0 1 1 1 0 0 0 0 0 0 0 0
0 0 3 4 2 1 10 9 1 0 1 1 2 1 2 0 1 0 4 10 0 2 1 0 0 1 1 2 1 0 0 0 8 0 1 0 1 2 2 0 1 2 0 2 0 0 0 0 2 0 0 0 0 0 0 0 0 0 0 0 0 0 0 0 0 0 0 0 0 0 0 0 0 0 0 0 0 0 0 0 0 0 0 0 0 0
0 2 2 0 2 2 4 1 4 1 3 1 2 8 8 7 0 0 3 5 2 2 2 4 5 3 2 0 0 0 0 0 0 0 0 0 6 2 0 0 5 1 2 0 0 3 2 1 2 4 5 0 0 0 0 0 0 0 0 0 0 0 0 0 0 1 0 0 0 0 0 0 0 0 0 0 0 0 0 0 0 0 0 0 0 0
3 6 7 0 0 0 5 1 8 6 2 6 2 4 5 2 6 8 8 1 11 10 8 9 2 0 0 0 0 5 5 6 2 0 0 0 0 0 0 1 3 1 1 4 0 1 2 6 6 4 4 1 0 0 0 0 0 0 0 0 0 0 0 0 0 0 0 0 0 0 0 0 0 0 0 0 0 0 0 0 0 0 0 0 0 0
Wind_Speed
nan nan nan nan nan nan nan nan nan nan nan nan nan nan nan nan nan nan nan nan nan nan nan nan nan nan nan nan nan nan nan nan nan nan nan 20 24 21 24 25 28 32 30 30 25 22 21 22 21 22 21 21 19 14 10 11 11 8 9 12 15 18 17 20 19 18 20 21 18 17 20 22 20 18 19 19 18 18 17 19 20 19 16 16 14 12
nan nan nan nan nan nan nan nan nan nan nan nan nan nan nan nan nan nan nan nan nan nan nan nan nan nan nan nan nan nan nan nan nan nan nan nan nan 24 21 17 27 33 31 30 27 25 19 21 21 21 20 20 18 13 9 9 10 9 6 8 13 17 15 20 23 22 23 19 22 18 21 19 19 20 19 18 17 20 24 19 16 19 16 18 14 13
nan nan nan nan nan nan nan nan nan nan nan nan nan nan nan nan nan nan nan nan nan nan nan nan nan nan nan nan nan nan nan nan nan nan nan nan nan nan 19 19 28 34 31 27 23 18 20 18 17 18 17 18 16 11 7 7 8 9 11 11 14 19 16 21 21 19 24 22 20 20 25 23 21 20 19 17 20 23 19 14 12 20 17 17 15 12
nan nan nan nan nan nan nan nan nan nan nan nan nan nan nan nan nan nan nan nan nan nan nan nan nan nan nan nan nan nan nan nan nan nan nan nan nan nan nan nan 43 25 23 27 19 17 21 17 15 15 15 16 16 9 7 8 6 7 14 18 22 27 20 23 23 25 25 27 30 32 30 28 20 21 20 21 22 21 20 16 14 20 13 17 13 12
nan nan nan nan nan nan nan nan nan nan nan nan nan nan nan nan nan nan nan nan nan nan nan nan nan nan nan nan nan nan nan nan nan nan nan nan nan nan nan nan 37 27 21 19 20 21 22 21 15 13 16 17 14 8 5 8 8 9 14 22 26 18 19 25 33 32 36 37 31 27 30 24 22 26 23 20 20 18 22 19 13 11 15 14 13 13
nan nan nan nan nan nan nan nan nan nan nan nan nan nan nan nan nan nan nan nan nan nan nan nan nan nan nan nan nan nan nan nan nan nan nan nan nan nan nan nan nan 36 23 17 20 24 24 26 18 14 14 15 12 7 5 6 10 13 24 23 19 21 33 33 36 36 33 31 26 27 28 24 22 25 22 18 16 16 18 16 9 13 15 15 13 13
nan nan nan nan nan nan nan nan nan nan nan nan nan nan nan nan nan nan nan nan nan nan nan nan nan nan nan nan nan nan nan nan nan nan nan nan nan nan nan nan nan nan 30 21 23 25 23 24 16 11 12 10 8 7 6 12 18 21 25 19 17 28 33 28 36 33 27 27 27 28 27 24 24 23 22 20 19 18 19 14 14 13 17 14 14 13
nan nan nan nan nan nan nan nan nan nan nan nan nan nan nan nan nan nan nan nan nan nan nan nan nan nan nan nan nan nan nan nan nan nan nan nan nan nan nan nan nan nan nan 33 25 22 22 15 11 10 10 9 8 9 15 24 33 30 31 26 23 33 34 30 32 31 24 24 27 29 26 25 24 22 22 23 21 22 17 17 16 18 17 16 15 15
nan nan nan nan nan nan nan nan nan nan nan nan nan nan nan nan nan nan nan nan nan nan nan nan nan nan nan nan nan nan nan nan nan nan nan nan 18 20 17 16 nan nan nan 34 29 24 21 11 11 11 11 13 15 23 38 41 43 41 33 31 31 36 33 23 31 32 26 24 22 26 26 23 24 24 25 23 26 22 17 11 16 21 17 16 15 16
nan nan nan nan nan nan nan nan nan nan nan nan nan nan nan nan nan nan nan nan nan nan nan nan nan nan nan nan nan nan nan nan nan 24 31 21 19 22 23 25 25 18 nan 33 28 25 22 11 13 16 18 20 24 40 41 43 45 40 31 32 35 35 27 28 35 35 31 23 16 22 23 26 27 25 22 20 23 23 17 16 19 20 15 18 17 16
nan nan nan nan nan nan nan nan nan nan nan nan nan nan nan nan nan nan nan nan nan nan nan nan nan nan nan nan nan nan 26 29 31 34 24 20 18 21 17 20 20 nan nan 30 27 22 19 13 19 23 22 28 35 36 42 41 42 37 35 31 37 42 35 29 39 43 36 20 14 18 21 25 28 26 21 21 21 23 24 22 17 17 17 18 18 16
nan nan nan nan nan nan nan nan nan nan nan nan nan nan nan nan nan nan nan nan nan nan nan nan nan nan nan nan nan 30 27 30 23 26 22 17 16 21 18 16 12 13 18 31 25 23 21 23 28 32 31 32 36 40 44 46 43 36 32 32 41 44 44 38 35 36 32 24 18 18 21 24 28 27 23 23 22 22 23 18 12 13 19 18 18 17
nan nan nan nan nan nan nan nan nan nan nan nan nan nan nan nan nan nan nan nan nan nan nan nan nan nan nan nan 15 nan 24 27 25 22 21 16 18 20 15 18 22 22 30 28 24 23 23 25 27 28 32 34 36 38 42 45 43 39 35 32 36 42 47 52 46 31 26 25 23 21 22 24 28 26 25 24 26 25 23 16 10 15 19 18 17 16
nan nan nan nan nan nan nan nan nan nan nan nan nan nan nan nan nan nan nan nan nan nan nan nan 19 nan 16 18 25 33 28 24 24 23 19 17 17 18 19 22 26 28 24 24 25 26 24 24 26 28 28 31 31 33 38 41 38 37 37 35 39 38 42 53 54 44 32 27 25 24 23 25 27 26 25 25 28 27 23 14 11 19 19 19 18 17
nan nan nan nan nan nan nan nan nan nan nan nan nan nan nan nan nan nan nan nan nan nan nan nan nan 14 nan nan 28 32 27 25 24 21 22 20 20 23 22 25 28 26 24 22 24 23 21 22 26 26 31 31 30 32 35 34 31 33 36 37 41 43 42 44 50 49 40 29 27 26 25 27 28 27 27 27 27 27 19 13 21 20 21 20 19 19
nan nan nan nan nan nan nan nan nan nan nan nan nan nan nan nan nan nan nan nan 21 nan nan 16 nan 12 17 29 28 22 22 23 22 23 18 23 23 24 24 28 30 27 26 19 18 15 15 19 21 23 26 26 26 29 30 30 29 28 31 35 41 45 45 45 47 48 41 34 30 28 29 33 30 28 30 27 25 22 23 24 23 23 22 22 22 20
nan nan nan nan nan nan nan nan nan nan nan nan nan nan nan nan nan nan nan nan nan nan nan nan 14 9 23 nan 22 18 21 21 20 23 23 25 25 25 30 28 27 27 27 23 19 18 16 17 18 18 21 22 21 22 24 26 27 26 27 32 40 45 45 48 46 43 38 36 31 29 31 34 32 29 29 27 23 25 27 27 26 25 24 24 22 22
nan nan nan nan nan nan nan nan nan nan nan nan nan nan nan nan nan nan 20 21 nan nan nan nan nan 12 16 21 24 19 15 20 25 25 27 24 25 28 28 29 30 30 31 27 22 18 17 18 20 21 22 23 20 20 24 28 27 26 26 28 34 40 44 44 41 37 37 36 34 34 36 34 34 33 30 22 22 25 27 27 26 25 24 23 23 23
nan nan nan nan nan nan nan nan nan nan nan nan nan nan nan nan nan nan nan nan nan nan nan nan nan 9 15 28 24 16 17 20 23 25 24 25 27 29 31 29 29 28 28 25 21 21 21 21 21 23 23 23 23 23 24 28 27 27 28 29 32 35 38 38 35 35 36 37 36 37 36 35 35 29 21 20 26 26 27 27 25 23 22 23 24 24
nan nan nan nan nan nan nan nan nan nan nan nan nan nan nan nan 17 nan nan nan 17 15 nan 13 nan nan 29 25 24 16 20 17 22 23 22 24 28 25 28 29 30 29 28 26 25 24 24 23 23 25 26 26 25 26 27 28 29 29 26 30 31 33 33 32 32 34 37 37 35 35 35 35 31 20 19 26 29 28 27 26 23 21 21 23 24 23
nan nan nan nan nan nan nan nan nan nan nan nan nan nan nan nan nan nan 20 18 18 nan nan nan 13 28 26 23 21 21 16 16 18 22 22 24 31 35 30 30 32 30 28 29 30 30 30 29 28 29 29 29 28 29 31 30 29 31 31 32 34 33 32 30 29 32 34 33 33 34 33 34 29 15 20 26 28 28 27 24 21 20 23 25 24 21
nan nan nan nan nan nan nan nan nan nan nan nan nan nan nan nan 15 nan nan nan nan nan nan nan nan 22 22 20 15 17 15 16 18 17 21 24 33 34 33 33 34 35 36 36 36 35 32 32 31 33 36 35 32 31 35 33 31 33 35 38 35 34 33 30 30 31 31 30 31 31 31 31 27 20 21 26 26 25 25 21 20 23 23 22 21 16
nan nan 19 nan nan nan 20 nan nan nan nan nan nan nan nan nan nan nan 19 nan nan nan nan 10 nan 19 21 19 19 18 16 16 16 15 20 24 31 35 34 33 32 33 34 37 38 38 38 39 38 37 39 39 36 34 38 30 32 36 35 36 35 35 33 32 34 32 30 28 28 30 29 29 24 23 25 26 23 21 20 19 20 21 21 18 18 16
nan nan 18 18 nan nan nan 23 nan nan nan nan nan nan nan nan nan nan nan 20 19 22 nan nan nan 24 22 20 20 21 21 20 23 24 23 25 29 33 35 35 34 33 35 37 38 38 39 41 42 41 42 37 36 34 37 37 37 36 34 33 31 30 31 35 35 34 31 27 28 29 29 28 26 25 25 22 20 18 16 18 18 20 18 18 17 17
nan nan nan nan 19 19 19 23 15 nan nan nan 19 19 nan nan 20 22 nan 24 nan nan nan nan nan 18 22 18 22 24 23 22 22 24 26 26 29 31 32 32 31 32 34 36 38 39 40 42 43 43 40 39 35 35 33 35 35 33 32 28 27 28 31 37 34 34 31 27 27 28 26 26 26 25 24 20 17 16 16 17 18 18 17 18 18 19
nan 27 nan nan nan nan nan nan nan nan 21 20 20 33 37 26 23 20 19 nan nan nan nan nan nan 24 19 18 22 22 23 24 23 25 25 26 29 30 31 31 32 32 33 35 37 39 41 nan 43 45 44 40 37 30 35 29 28 29 29 27 32 30 34 31 31 30 31 32 29 28 30 30 26 24 23 21 19 16 16 18 16 17 18 17 19 19
nan nan 21 25 nan nan nan nan nan nan nan nan 25 35 28 nan 25 25 24 23 nan nan nan 32 nan 20 21 20 20 22 22 24 23 24 25 25 27 29 31 31 31 32 33 35 35 35 37 nan nan nan nan 40 40 34 29 32 27 25 25 23 23 26 27 26 28 29 29 27 26 25 24 24 23 26 26 23 20 15 16 16 16 17 17 18 22 nan
28 26 23 20 25 31 30 nan nan nan nan 30 nan nan 28 28 27 25 23 25 31 29 21 36 37 27 22 25 24 21 23 24 23 23 24 24 25 26 29 31 32 32 32 31 32 nan 35 38 nan nan nan nan 39 35 nan 31 27 25 19 16 15 22 24 24 25 26 25 23 22 20 18 15 24 26 23 18 15 14 14 16 16 15 15 nan nan nan
nan nan 23 20 21 22 nan nan nan nan nan 26 28 29 31 32 32 31 30 34 29 27 nan nan 34 33 23 20 21 23 23 25 25 25 24 23 23 25 26 29 30 30 30 30 31 nan nan nan 36 nan nan nan 39 38 nan nan 32 32 25 21 19 22 21 22 22 22 23 21 20 21 22 20 22 26 26 17 13 11 12 14 15 15 nan nan nan nan
nan 27 28 30 nan 24 23 21 nan nan 29 nan 33 nan nan 32 36 36 33 35 31 34 38 37 40 39 31 24 21 21 22 24 25 25 25 25 26 25 26 27 28 28 29 30 31 32 33 nan nan nan nan nan 36 nan nan nan nan 35 36 33 31 27 22 20 nan 18 19 18 21 23 22 23 19 17 17 9 10 11 14 15 16 nan nan nan nan nan
nan nan 36 34 nan nan 26 nan 21 nan nan nan nan nan nan 35 35 37 nan 36 32 35 35 36 36 35 32 29 26 24 23 24 25 28 27 28 28 28 28 28 27 28 28 30 30 nan nan nan nan nan nan nan nan nan nan nan nan nan nan 38 36 35 29 24 23 24 22 23 23 24 24 25 24 20 13 11 16 17 17 19 21 nan nan nan 28 28
nan nan 28 29 25 23 24 26 25 nan nan nan nan nan nan nan nan nan nan nan 37 36 32 31 32 31 30 31 31 29 27 28 29 29 29 28 29 30 30 30 28 28 29 30 nan nan nan nan nan nan nan nan nan nan nan nan nan nan nan nan nan nan nan 36 32 31 29 27 27 26 25 26 26 26 27 25 24 23 24 24 25 26 27 29 nan nan
27 23 nan nan 22 nan nan nan nan 25 nan nan nan nan nan nan nan nan nan nan nan nan 36 33 34 32 nan 29 30 30 29 30 30 29 29 31 31 32 31 31 30 29 30 30 nan nan nan nan nan nan nan nan nan nan nan nan nan nan nan nan nan nan nan nan nan nan nan nan 31 nan 29 nan nan nan nan nan nan nan nan nan nan nan nan nan nan nan
28 23 nan 23 22 nan 23 nan nan nan 21 nan nan nan nan nan nan nan nan nan nan nan nan nan 34 33 32 nan nan 33 33 nan nan nan 31 31 31 32 32 32 32 32 32 nan nan nan nan nan nan nan nan nan nan nan nan nan nan nan nan nan 37 nan nan nan nan nan nan nan nan nan nan nan nan nan nan nan 29 nan nan nan nan nan nan nan nan nan
29 25 nan nan nan nan nan nan nan nan nan nan nan nan nan nan nan nan nan nan nan nan nan nan nan nan nan nan nan nan 36 35 nan nan 34 33 32 31 32 33 nan nan nan nan nan nan nan nan nan nan nan nan nan nan nan nan nan nan nan nan nan nan nan nan nan nan nan nan nan nan nan nan nan nan nan nan nan nan nan nan nan nan nan nan nan nan
29 nan 22 nan nan nan nan nan 16 nan nan nan nan nan nan nan nan nan nan nan nan nan nan nan nan nan nan nan nan nan 38 38 37 37 36 35 33 32 32 nan nan nan nan nan nan nan nan nan nan nan nan nan nan nan nan nan nan nan nan nan nan nan nan nan nan nan nan nan nan nan nan nan nan nan nan nan nan nan nan nan nan nan nan nan nan nan
28 25 nan nan nan nan nan nan nan nan nan nan nan nan nan nan nan nan nan nan nan nan nan nan nan nan nan nan nan nan nan 36 37 37 38 37 36 34 34 nan nan nan nan nan nan nan nan nan nan nan nan nan nan nan nan nan nan nan nan nan nan nan nan nan nan nan nan nan nan nan nan nan nan nan nan nan nan nan nan nan nan nan nan nan nan nan
nan 26 nan nan nan nan nan nan nan nan nan nan nan nan nan nan nan nan nan nan nan nan nan nan nan nan nan nan nan nan nan nan nan nan nan 37 37 36 35 nan nan nan nan nan nan nan nan nan nan nan nan nan nan nan nan nan nan nan nan nan nan nan nan nan nan nan nan nan nan nan nan nan nan nan nan nan nan nan nan nan nan nan nan nan nan nan
nan nan 26 nan nan nan nan nan nan nan nan nan nan nan nan nan nan nan nan nan nan nan nan nan nan nan nan nan nan nan nan nan nan nan nan nan nan nan nan nan nan nan nan nan nan nan nan nan nan nan nan nan nan nan nan nan nan nan nan nan nan nan nan nan nan nan nan nan nan nan nan nan nan nan nan nan nan nan nan nan nan nan nan nan nan nan
nan nan nan nan nan nan nan nan nan nan nan nan nan nan nan nan nan nan nan nan nan nan nan nan nan nan nan nan nan nan nan nan nan nan nan nan nan nan nan nan nan nan nan nan nan nan nan nan nan nan nan nan nan nan nan nan nan nan nan nan nan nan nan nan nan nan nan nan nan nan nan nan nan nan nan nan nan nan nan nan nan nan nan nan nan nan
nan nan nan nan nan nan nan nan nan nan nan nan nan nan nan nan nan nan nan nan nan nan nan nan nan nan nan nan nan nan nan nan nan nan nan nan nan nan nan nan nan nan nan nan nan nan nan nan nan nan nan nan nan nan nan nan nan nan nan nan nan nan nan nan nan nan nan nan nan nan nan nan nan nan nan nan nan nan nan nan nan nan nan nan nan nan
nan nan nan nan nan nan nan nan nan nan nan nan nan nan nan nan nan nan nan nan nan nan nan nan nan nan nan nan nan nan nan nan nan nan nan nan nan nan nan nan nan nan nan nan nan nan nan nan nan nan nan nan nan nan nan nan nan nan nan nan nan nan nan nan nan nan nan nan nan nan nan nan nan nan nan nan nan nan nan nan nan nan nan nan nan nan
nan nan nan nan nan nan nan nan nan nan nan nan nan nan nan nan nan nan nan nan nan nan nan nan nan nan nan nan nan nan nan nan nan nan nan nan nan nan nan nan nan nan nan nan nan nan nan nan nan nan nan nan nan nan nan nan nan nan nan nan nan nan nan nan nan nan nan nan nan nan nan nan nan nan nan nan nan nan nan nan nan nan nan nan nan nan
nan nan nan nan nan nan nan nan nan nan nan nan nan nan nan nan nan nan nan nan nan nan nan nan nan nan nan nan nan nan nan nan nan nan nan nan nan nan nan nan nan nan nan nan nan nan nan nan nan nan nan nan nan nan nan nan nan nan nan nan nan nan nan nan nan nan nan nan nan nan nan nan nan nan nan nan nan nan nan nan nan nan nan nan nan nan
nan nan nan nan nan nan nan nan nan nan nan nan nan nan nan nan nan nan nan nan nan nan nan nan nan nan nan nan nan nan nan nan nan nan nan nan nan nan nan nan nan nan nan nan nan nan nan nan nan nan nan nan nan nan nan nan nan nan nan nan nan nan nan nan nan nan nan nan nan nan nan nan nan nan nan nan nan nan nan nan nan nan nan nan nan nan
nan nan nan nan nan nan nan nan nan nan nan nan nan nan nan nan nan nan nan nan nan nan nan nan nan nan nan nan nan nan nan nan nan nan nan nan nan nan nan nan nan nan nan nan nan nan nan nan nan nan nan nan nan nan nan nan nan nan nan nan nan nan nan nan nan nan nan nan nan nan nan nan nan nan nan nan nan nan nan nan nan nan nan nan nan nan
nan nan nan nan nan nan nan nan nan nan nan nan nan nan nan nan nan nan nan nan nan nan nan nan nan nan nan nan nan nan nan nan nan nan nan nan nan nan nan nan nan nan nan nan nan nan nan nan nan nan nan nan nan nan nan nan nan nan nan nan nan nan nan nan nan nan nan nan nan nan nan nan nan nan nan nan nan nan nan nan nan nan nan nan nan nan
nan nan nan nan nan nan nan nan nan nan nan nan nan nan nan nan nan nan nan nan nan nan nan nan nan nan nan nan nan nan nan nan nan nan nan nan nan nan nan nan nan nan nan nan nan nan nan nan nan nan nan nan nan nan nan nan nan nan nan nan nan nan nan nan nan nan nan nan nan nan nan nan nan nan nan nan nan nan nan nan nan nan nan nan nan nan
nan nan nan nan nan nan nan nan nan nan nan nan nan nan nan nan nan nan nan nan nan nan nan nan nan nan nan nan nan nan nan nan nan nan nan nan nan nan nan nan nan nan nan nan nan nan nan nan nan nan nan nan nan nan nan nan nan nan nan nan nan nan nan nan nan nan nan nan nan nan nan nan nan nan nan nan nan nan nan nan nan nan nan nan nan nan
nan nan nan nan nan nan nan nan nan nan nan nan nan nan nan nan nan nan nan nan nan nan nan nan nan nan nan nan nan nan nan nan nan nan nan nan nan nan nan nan nan nan nan nan nan nan nan nan nan nan nan nan nan nan nan nan nan nan nan nan nan nan nan nan nan nan nan nan nan nan nan nan nan nan nan nan nan nan nan nan nan nan nan nan nan nan
nan nan nan nan nan nan nan nan nan nan nan nan nan nan nan nan nan nan nan nan nan nan nan nan nan nan nan nan nan nan nan nan nan nan nan nan nan nan nan nan nan nan nan nan nan nan nan nan nan nan nan nan nan nan nan nan nan nan nan nan nan nan nan nan nan nan nan nan nan nan nan nan nan nan nan nan nan nan nan nan nan nan nan nan nan nan
Wind_Direction
nan nan nan nan nan nan nan nan nan nan nan nan nan nan nan nan nan nan nan nan nan nan nan nan nan nan nan nan nan nan nan nan nan nan nan 265 276 280 270 269 276 281 278 279 284 271 275 288 288 290 296 304 306 316 321 322 317 304 304 296 286 274 274 262 262 250 261 252 244 246 254 252 255 259 260 263 264 264 271 279 277 275 268 266 261 253
nan nan nan nan nan nan nan nan nan nan nan nan nan nan nan nan nan nan nan nan nan nan nan nan nan nan nan nan nan nan nan nan nan nan nan nan nan 278 254 239 280 282 276 272 271 277 285 286 291 289 291 301 310 314 323 316 314 287 282 295 267 267 271 255 240 243 247 255 256 253 263 255 262 261 264 266 261 252 242 238 264 276 271 271 258 253
nan nan nan nan nan nan nan nan nan nan nan nan nan nan nan nan nan nan nan nan nan nan nan nan nan nan nan nan nan nan nan nan nan nan nan nan nan nan 281 292 277 275 275 278 270 279 285 288 292 290 293 297 303 314 307 301 303 286 264 255 257 259 252 255 256 248 248 239 244 258 255 258 261 258 262 259 250 254 248 238 258 270 279 267 266 257
nan nan nan nan nan nan nan nan nan nan nan nan nan nan nan nan nan nan nan nan nan nan nan nan nan nan nan nan nan nan nan nan nan nan nan nan nan nan nan nan 271 265 276 288 290 287 282 274 281 287 290 291 289 291 284 290 306 281 269 258 249 245 250 263 269 261 268 254 243 238 243 244 248 256 256 249 248 244 238 232 224 271 259 275 262 266
nan nan nan nan nan nan nan nan nan nan nan nan nan nan nan nan nan nan nan nan nan nan nan nan nan nan nan nan nan nan nan nan nan nan nan nan nan nan nan nan 286 289 280 282 278 273 268 265 266 270 267 270 278 290 292 285 277 256 259 254 257 265 267 255 254 253 250 254 258 264 259 258 255 252 253 255 251 246 245 224 233 239 276 275 273 265
nan nan nan nan nan nan nan nan nan nan nan nan nan nan nan nan nan nan nan nan nan nan nan nan nan nan nan nan nan nan nan nan nan nan nan nan nan nan nan nan nan 287 285 277 266 264 259 254 244 253 267 272 273 299 305 286 256 245 242 250 265 253 239 247 253 250 251 260 267 265 265 268 262 263 269 265 258 249 244 243 240 282 281 281 273 269
nan nan nan nan nan nan nan nan nan nan nan nan nan nan nan nan nan nan nan nan nan nan nan nan nan nan nan nan nan nan nan nan nan nan nan nan nan nan nan nan nan nan 287 280 262 257 254 251 251 262 266 277 288 315 293 251 243 238 245 246 248 240 241 242 255 259 258 264 266 263 264 267 264 270 268 258 246 253 246 237 251 272 279 282 277 270
nan nan nan nan nan nan nan nan nan nan nan nan nan nan nan nan nan nan nan nan nan nan nan nan nan nan nan nan nan nan nan nan nan nan nan nan nan nan nan nan nan nan nan 284 275 264 256 259 278 278 283 272 265 256 247 237 228 231 224 215 223 245 250 249 261 267 258 262 266 267 262 259 259 260 264 256 248 243 221 231 264 273 277 277 273 273
nan nan nan nan nan nan nan nan nan nan nan nan nan nan nan nan nan nan nan nan nan nan nan nan nan nan nan nan nan nan nan nan nan nan nan nan 235 233 222 217 nan nan nan 277 284 284 280 272 267 256 247 237 231 236 239 231 238 233 229 231 230 249 268 281 280 276 266 262 267 268 268 267 260 262 257 254 251 238 221 219 268 261 260 271 272 269
nan nan nan nan nan nan nan nan nan nan nan nan nan nan nan nan nan nan nan nan nan nan nan nan nan nan nan nan nan nan nan nan nan 264 264 251 233 225 217 215 211 206 nan 269 277 272 265 241 237 233 221 229 231 244 253 253 249 243 247 252 266 274 272 269 275 271 266 257 258 268 272 268 266 265 264 251 248 250 241 239 248 264 265 263 265 262
nan nan nan nan nan nan nan nan nan nan nan nan nan nan nan nan nan nan nan nan nan nan nan nan nan nan nan nan nan nan 233 247 254 249 245 251 226 222 226 224 221 nan nan 267 274 274 279 261 239 231 223 228 242 250 256 255 254 248 251 262 266 260 260 272 270 263 263 280 283 279 277 268 267 270 271 263 251 249 251 237 226 255 261 266 261 257
nan nan nan nan nan nan nan nan nan nan nan nan nan nan nan nan nan nan nan nan nan nan nan nan nan nan nan nan nan 242 237 246 249 264 266 253 236 233 224 237 239 222 234 262 269 273 268 257 247 242 241 240 242 248 253 260 265 266 263 265 265 261 264 267 270 262 266 284 302 282 280 276 270 273 275 270 264 261 257 242 237 249 265 259 257 254
nan nan nan nan nan nan nan nan nan nan nan nan nan nan nan nan nan nan nan nan nan nan nan nan nan nan nan nan 252 nan 254 252 249 248 256 243 224 230 232 235 241 242 241 250 256 255 251 251 253 247 245 244 243 247 256 263 270 273 276 279 277 267 259 268 280 282 283 292 296 286 282 277 268 271 278 277 261 259 248 226 223 265 264 260 257 257
nan nan nan nan nan nan nan nan nan nan nan nan nan nan nan nan nan nan nan nan nan nan nan nan 240 nan 232 253 242 256 259 257 254 248 243 236 232 229 231 234 246 253 251 252 249 248 242 243 245 242 243 243 243 249 255 263 270 277 280 286 285 283 277 274 282 293 302 301 287 282 282 278 271 272 278 273 263 249 231 213 257 269 263 259 256 253
nan nan nan nan nan nan nan nan nan nan nan nan nan nan nan nan nan nan nan nan nan nan nan nan nan 246 nan nan 252 257 262 259 255 245 238 235 231 236 234 240 245 249 249 244 245 238 229 231 243 242 240 243 245 251 258 264 270 274 280 284 285 286 290 283 276 280 293 300 298 289 282 277 273 273 272 273 260 244 225 239 265 265 258 257 253 250
nan nan nan nan nan nan nan nan nan nan nan nan nan nan nan nan nan nan nan nan 225 nan nan 274 nan 257 250 261 252 260 263 256 251 242 232 235 236 240 242 241 238 235 236 239 247 241 243 246 239 241 245 247 250 259 264 270 273 276 278 285 288 293 296 292 282 279 286 302 300 292 284 282 279 267 268 266 260 244 234 251 267 260 255 254 249 247
nan nan nan nan nan nan nan nan nan nan nan nan nan nan nan nan nan nan nan nan nan nan nan nan 276 275 257 nan 278 280 267 256 245 240 231 233 238 238 244 247 249 237 233 234 238 238 240 239 239 243 250 251 258 265 273 278 281 281 282 284 290 297 300 303 299 289 287 303 301 292 284 276 277 274 266 259 250 242 243 255 258 254 252 252 250 249
nan nan nan nan nan nan nan nan nan nan nan nan nan nan nan nan nan nan 228 239 nan nan nan nan nan 280 294 271 244 239 257 245 238 232 232 236 238 238 240 246 249 245 237 230 229 233 237 239 243 246 250 258 260 263 271 275 278 278 277 279 283 293 301 303 304 294 292 300 297 289 287 277 278 273 248 233 251 248 252 257 252 250 252 254 250 249
nan nan nan nan nan nan nan nan nan nan nan nan nan nan nan nan nan nan nan nan nan nan nan nan nan 251 246 263 280 276 250 245 242 239 238 236 239 237 241 239 244 245 241 236 235 236 241 243 250 256 260 262 263 265 267 271 274 272 274 275 280 288 294 298 293 288 286 292 286 287 286 286 287 277 246 241 255 254 255 258 250 248 251 252 251 249
nan nan nan nan nan nan nan nan nan nan nan nan nan nan nan nan 218 nan nan nan 235 239 nan 255 nan nan 241 255 267 281 260 239 238 240 235 237 242 243 240 237 234 231 232 234 237 243 245 245 252 258 262 266 267 270 272 271 273 274 273 278 279 280 282 284 285 282 286 288 285 285 282 283 283 269 242 245 257 253 256 257 250 250 257 255 249 249
nan nan nan nan nan nan nan nan nan nan nan nan nan nan nan nan nan nan 229 230 230 nan nan nan 254 252 245 244 254 263 259 250 238 238 234 235 237 239 241 238 232 229 231 231 230 231 235 243 246 253 255 258 257 261 265 269 273 276 276 276 279 281 280 276 275 280 286 287 287 286 282 284 288 270 246 254 252 253 259 256 247 253 260 256 250 249
nan nan nan nan nan nan nan nan nan nan nan nan nan nan nan nan 248 nan nan nan nan nan nan nan nan 244 250 241 262 262 259 253 240 233 238 232 239 242 239 237 233 228 225 225 226 229 232 238 238 245 251 252 257 260 260 257 260 271 273 275 276 277 276 273 272 279 286 285 285 286 283 285 288 276 257 256 257 257 260 254 251 258 262 258 252 248
nan nan 207 nan nan nan 215 nan nan nan nan nan nan nan nan nan nan nan 230 nan nan nan nan 226 nan 267 258 249 253 260 251 247 246 242 244 243 243 242 239 240 239 235 231 229 229 231 232 231 231 245 247 248 247 252 266 263 265 260 262 265 271 273 276 275 272 274 281 286 285 284 278 276 277 271 263 262 256 252 252 249 254 262 262 261 252 246
nan nan 214 215 nan nan nan 219 nan nan nan nan nan nan nan nan nan nan nan 223 218 229 nan nan nan 259 264 258 258 256 249 242 238 235 240 239 243 241 239 237 236 234 232 232 233 234 234 235 236 237 240 243 248 251 258 262 262 263 262 263 264 273 273 274 269 267 275 278 276 277 272 269 271 269 261 253 240 245 244 250 253 256 261 257 250 247
nan nan nan nan 220 232 239 223 221 nan nan nan 224 229 nan nan 219 230 nan 231 nan nan nan nan nan 249 256 260 262 255 248 244 241 236 230 232 236 240 241 241 240 237 235 233 234 234 234 236 238 240 240 244 249 258 261 258 256 257 256 257 267 265 265 264 262 263 268 268 264 267 264 262 265 262 253 242 235 241 248 249 248 251 253 248 246 245
nan 218 nan nan nan nan nan nan nan nan 215 217 223 227 216 210 213 224 237 nan nan nan nan nan nan 253 250 256 258 248 244 243 236 236 236 233 234 237 239 240 240 238 237 238 238 238 237 nan 240 242 244 245 246 256 270 264 261 251 248 244 248 248 257 251 250 262 256 250 245 247 247 243 244 251 245 235 229 234 243 243 241 241 240 244 244 240
nan nan 214 208 nan nan nan nan nan nan nan nan 229 245 231 nan 213 222 223 232 nan nan nan 248 nan 240 248 246 244 245 239 238 234 231 232 232 233 238 241 242 241 241 241 241 240 242 243 nan nan nan nan 245 245 239 250 265 261 253 246 248 238 242 246 250 253 253 252 248 244 234 238 238 235 221 224 229 222 224 239 239 235 237 237 240 244 nan
222 221 215 209 218 235 245 nan nan nan nan 218 nan nan 241 234 232 234 231 229 226 235 245 240 256 259 242 227 222 234 240 238 232 228 230 233 235 238 240 240 240 240 241 242 241 nan 241 241 nan nan nan nan 242 238 nan 251 254 249 242 261 238 231 239 246 253 257 254 252 246 228 236 237 226 219 216 222 230 230 231 233 234 236 239 nan nan nan
nan nan 222 217 225 239 nan nan nan nan nan 242 229 225 232 233 232 238 234 232 226 236 nan nan 266 270 265 241 225 224 229 236 236 233 230 231 234 238 240 239 238 238 237 237 238 nan nan nan 243 nan nan nan 236 231 nan nan 236 227 226 230 248 237 240 236 242 253 252 254 254 243 237 235 218 210 204 203 236 239 240 243 244 241 nan nan nan nan
nan 235 221 221 nan 227 237 238 nan nan 229 nan 234 nan nan 236 238 233 233 231 234 243 249 254 256 256 250 250 236 233 236 239 239 237 235 233 232 236 240 240 238 235 233 234 236 238 241 nan nan nan nan nan 234 nan nan nan nan 221 218 221 223 238 242 246 nan 253 265 266 258 252 242 230 224 223 223 209 249 251 247 247 248 nan nan nan nan nan
nan nan 229 223 nan nan 240 nan 240 nan nan nan nan nan nan 231 240 236 nan 229 230 247 252 260 259 254 250 246 247 246 245 244 243 240 237 235 234 235 238 239 238 235 233 235 237 nan nan nan nan nan nan nan nan nan nan nan nan nan nan 215 227 236 241 243 260 268 268 265 260 255 243 236 232 239 253 262 258 256 257 256 254 nan nan nan 253 253
nan nan 227 226 226 234 242 243 242 nan nan nan nan nan nan nan nan nan nan nan 234 237 236 254 254 256 257 252 245 241 242 239 240 241 239 237 235 236 237 238 237 235 234 235 nan nan nan nan nan nan nan nan nan nan nan nan nan nan nan nan nan nan nan 238 246 256 255 255 257 255 248 242 242 240 233 241 252 251 248 253 253 254 254 251 nan nan
223 226 nan nan 226 nan nan nan nan 243 nan nan nan nan nan nan nan nan nan nan nan nan 242 248 250 251 nan 259 255 246 241 239 240 240 242 241 239 238 238 239 241 240 238 238 nan nan nan nan nan nan nan nan nan nan nan nan nan nan nan nan nan nan nan nan nan nan nan nan 246 nan 241 nan nan nan nan nan nan nan nan nan nan nan nan nan nan nan
230 224 nan 225 223 nan 220 nan nan nan 248 nan nan nan nan nan nan nan nan nan nan nan nan nan 249 252 254 nan nan 250 245 nan nan nan 242 239 238 238 239 242 244 245 243 nan nan nan nan nan nan nan nan nan nan nan nan nan nan nan nan nan 225 nan nan nan nan nan nan nan nan nan nan nan nan nan nan nan 245 nan nan nan nan nan nan nan nan nan
228 224 nan nan nan nan nan nan nan nan nan nan nan nan nan nan nan nan nan nan nan nan nan nan nan nan nan nan nan nan 253 249 nan nan 238 237 241 242 242 244 nan nan nan nan nan nan nan nan nan nan nan nan nan nan nan nan nan nan nan nan nan nan nan nan nan nan nan nan nan nan nan nan nan nan nan nan nan nan nan nan nan nan nan nan nan nan
223 nan 227 nan nan nan nan nan 218 nan nan nan nan nan nan nan nan nan nan nan nan nan nan nan nan nan nan nan nan nan 255 252 245 239 238 238 239 242 245 nan nan nan nan nan nan nan nan nan nan nan nan nan nan nan nan nan nan nan nan nan nan nan nan nan nan nan nan nan nan nan nan nan nan nan nan nan nan nan nan nan nan nan nan nan nan nan
217 221 nan nan nan nan nan nan nan nan nan nan nan nan nan nan nan nan nan nan nan nan nan nan nan nan nan nan nan nan nan 253 245 237 235 240 242 244 247 nan nan nan nan nan nan nan nan nan nan nan nan nan nan nan nan nan nan nan nan nan nan nan nan nan nan nan nan nan nan nan nan nan nan nan nan nan nan nan nan nan nan nan nan nan nan nan
nan 214 nan nan nan nan nan nan nan nan nan nan nan nan nan nan nan nan nan nan nan nan nan nan nan nan nan nan nan nan nan nan nan nan nan 241 244 245 244 nan nan nan nan nan nan nan nan nan nan nan nan nan nan nan nan nan nan nan nan nan nan nan nan nan nan nan nan nan nan nan nan nan nan nan nan nan nan nan nan nan nan nan nan nan nan nan
nan nan 205 nan nan nan nan nan nan nan nan nan nan nan nan nan nan nan nan nan nan nan nan nan nan nan nan nan nan nan nan nan nan nan nan nan nan nan nan nan nan nan nan nan nan nan nan nan nan nan nan nan nan nan nan nan nan nan nan nan nan nan nan nan nan nan nan nan nan nan nan nan nan nan nan nan nan nan nan nan nan nan nan nan nan nan
nan nan nan nan nan nan nan nan nan nan nan nan nan nan nan nan nan nan nan nan nan nan nan nan nan nan nan nan nan nan nan nan nan nan nan nan nan nan nan nan nan nan nan nan nan nan nan nan nan nan nan nan nan nan nan nan nan nan nan nan nan nan nan nan nan nan nan nan nan nan nan nan nan nan nan nan nan nan nan nan nan nan nan nan nan nan
nan nan nan nan nan nan nan nan nan nan nan nan nan nan nan nan nan nan nan nan nan nan nan nan nan nan nan nan nan nan nan nan nan nan nan nan nan nan nan nan nan nan nan nan nan nan nan nan nan nan nan nan nan nan nan nan nan nan nan nan nan nan nan nan nan nan nan nan nan nan nan nan nan nan nan nan nan nan nan nan nan nan nan nan nan nan
nan nan nan nan nan nan nan nan nan nan nan nan nan nan nan nan nan nan nan nan nan nan nan nan nan nan nan nan nan nan nan nan nan nan nan nan nan nan nan nan nan nan nan nan nan nan nan nan nan nan nan nan nan nan nan nan nan nan nan nan nan nan nan nan nan nan nan nan nan nan nan nan nan nan nan nan nan nan nan nan nan nan nan nan nan nan
nan nan nan nan nan nan nan nan nan nan nan nan nan nan nan nan nan nan nan nan nan nan nan nan nan nan nan nan nan nan nan nan nan nan nan nan nan nan nan nan nan nan nan nan nan nan nan nan nan nan nan nan nan nan nan nan nan nan nan nan nan nan nan nan nan nan nan nan nan nan nan nan nan nan nan nan nan nan nan nan nan nan nan nan nan nan
nan nan nan nan nan nan nan nan nan nan nan nan nan nan nan nan nan nan nan nan nan nan nan nan nan nan nan nan nan nan nan nan nan nan nan nan nan nan nan nan nan nan nan nan nan nan nan nan nan nan nan nan nan nan nan nan nan nan nan nan nan nan nan nan nan nan nan nan nan nan nan nan nan nan nan nan nan nan nan nan nan nan nan nan nan nan
nan nan nan nan nan nan nan nan nan nan nan nan nan nan nan nan nan nan nan nan nan nan nan nan nan nan nan nan nan nan nan nan nan nan nan nan nan nan nan nan nan nan nan nan nan nan nan nan nan nan nan nan nan nan nan nan nan nan nan nan nan nan nan nan nan nan nan nan nan nan nan nan nan nan nan nan nan nan nan nan nan nan nan nan nan nan
nan nan nan nan nan nan nan nan nan nan nan nan nan nan nan nan nan nan nan nan nan nan nan nan nan nan nan nan nan nan nan nan nan nan nan nan nan nan nan nan nan nan nan nan nan nan nan nan nan nan nan nan nan nan nan nan nan nan nan nan nan nan nan nan nan nan nan nan nan nan nan nan nan nan nan nan nan nan nan nan nan nan nan nan nan nan
nan nan nan nan nan nan nan nan nan nan nan nan nan nan nan nan nan nan nan nan nan nan nan nan nan nan nan nan nan nan nan nan nan nan nan nan nan nan nan nan nan nan nan nan nan nan nan nan nan nan nan nan nan nan nan nan nan nan nan nan nan nan nan nan nan nan nan nan nan nan nan nan nan nan nan nan nan nan nan nan nan nan nan nan nan nan
nan nan nan nan nan nan nan nan nan nan nan nan nan nan nan nan nan nan nan nan nan nan nan nan nan nan nan nan nan nan nan nan nan nan nan nan nan nan nan nan nan nan nan nan nan nan nan nan nan nan nan nan nan nan nan nan nan nan nan nan nan nan nan nan nan nan nan nan nan nan nan nan nan nan nan nan nan nan nan nan nan nan nan nan nan nan
nan nan nan nan nan nan nan nan nan nan nan nan nan nan nan nan nan nan nan nan nan nan nan nan nan nan nan nan nan nan nan nan nan nan nan nan nan nan nan nan nan nan nan nan nan nan nan nan nan nan nan nan nan nan nan nan nan nan nan nan nan nan nan nan nan nan nan nan nan nan nan nan nan nan nan nan nan nan nan nan nan nan nan nan nan nan
nan nan nan nan nan nan nan nan nan nan nan nan nan nan nan nan nan nan nan nan nan nan nan nan nan nan nan nan nan nan nan nan nan nan nan nan nan nan nan nan nan nan nan nan nan nan nan nan nan nan nan nan nan nan nan nan nan nan nan nan nan nan nan nan nan nan nan nan nan nan nan nan nan nan nan nan nan nan nan nan nan nan nan nan nan nan
nan nan nan nan nan nan nan nan nan nan nan nan nan nan nan nan nan nan nan nan nan nan nan nan nan nan nan nan nan nan nan nan nan nan nan nan nan nan nan nan nan nan nan nan nan nan nan nan nan nan nan nan nan nan nan nan nan nan nan nan nan nan nan nan nan nan nan nan nan nan nan nan nan nan nan nan nan nan nan nan nan nan nan nan nan nan